User: anonymous   Login
Location: Unspecified
(0.0000°N, 0.0000°E)
Time: 02:06:40
(UTC+00:00)
Language:

STARLINK-5295 - Orbit

View from above orbital plane
View from above orbital plane
View from above satellite
View from above satellite

Ground track
Ground track

The orbit is defined by the following mean orbital elements,

1 55306U          26145.36148323 +.00000000 +00000-0 +13327-4 0 00000
2 55306  69.9984 171.2725 0003368 269.6440  90.4333 14.98330478    01
Epoch (UTC): 25 May 2026 08:40:32
Eccentricity: 0.0003368
inclination: 69.9984°
perigee height: 570 km
apogee height: 574 km
right ascension of ascending node: 171.2725°
argument of perigee: 269.6440°
revolutions per day: 14.98330478
mean anomaly at epoch: 90.4333°

The dashed part of the orbit path shows where the satellite is in the earth's shadow,  

DLR